Year,Month,Day,Hour,Minute,Value (Times are PST for temperature in C)
2015,03,17,00,00,2.30
2015,03,17,00,01,2.30
2015,03,17,00,02,2.30
2015,03,17,00,03,2.30
2015,03,17,00,04,2.30
2015,03,17,00,05,2.20
2015,03,17,00,06,2.20
2015,03,17,00,07,2.20
2015,03,17,00,08,2.20
2015,03,17,00,09,2.20
2015,03,17,00,10,2.20
2015,03,17,00,11,2.20
2015,03,17,00,12,2.20
2015,03,17,00,13,2.20
2015,03,17,00,14,2.20
2015,03,17,00,15,2.20
2015,03,17,00,16,2.10
2015,03,17,00,17,2.10
2015,03,17,00,18,2.10
2015,03,17,00,19,2.10
2015,03,17,00,20,2.10
2015,03,17,00,21,2.10
2015,03,17,00,22,2.10
2015,03,17,00,23,2.10
2015,03,17,00,24,2.10
2015,03,17,00,25,2.20
2015,03,17,00,26,2.20
2015,03,17,00,27,2.20
2015,03,17,00,28,2.10
2015,03,17,00,29,2.10
2015,03,17,00,30,2.10
2015,03,17,00,31,2.20
2015,03,17,00,32,2.10
2015,03,17,00,33,2.10
2015,03,17,00,34,2.10
2015,03,17,00,35,2.10
2015,03,17,00,36,2.10
2015,03,17,00,37,2.10
2015,03,17,00,38,2.10
2015,03,17,00,39,2.10
2015,03,17,00,40,2.10
2015,03,17,00,41,2.10
2015,03,17,00,42,2.00
2015,03,17,00,43,2.00
2015,03,17,00,44,2.10
2015,03,17,00,45,2.10
2015,03,17,00,46,2.10
2015,03,17,00,47,2.10
2015,03,17,00,48,2.10
2015,03,17,00,49,2.10
2015,03,17,00,50,2.10
2015,03,17,00,51,2.10
2015,03,17,00,52,2.20
2015,03,17,00,53,2.20
2015,03,17,00,54,2.20
2015,03,17,00,55,2.20
2015,03,17,00,56,2.20
2015,03,17,00,57,2.20
2015,03,17,00,58,2.10
2015,03,17,00,59,2.10
2015,03,17,01,00,2.10
2015,03,17,01,01,2.10
2015,03,17,01,02,2.10
2015,03,17,01,03,2.00
2015,03,17,01,04,2.00
2015,03,17,01,05,1.90
2015,03,17,01,06,1.90
2015,03,17,01,07,1.80
2015,03,17,01,08,1.80
2015,03,17,01,09,1.80
2015,03,17,01,10,1.70
2015,03,17,01,11,1.70
2015,03,17,01,12,1.70
2015,03,17,01,13,1.70
2015,03,17,01,14,1.70
2015,03,17,01,15,1.70
2015,03,17,01,16,1.60
2015,03,17,01,17,1.60
2015,03,17,01,18,1.60
2015,03,17,01,19,1.60
2015,03,17,01,20,1.60
2015,03,17,01,21,1.60
2015,03,17,01,22,1.60
2015,03,17,01,23,1.60
2015,03,17,01,24,1.60
2015,03,17,01,25,1.60
2015,03,17,01,26,1.60
2015,03,17,01,27,1.60
2015,03,17,01,28,1.60
2015,03,17,01,29,1.60
2015,03,17,01,30,1.60
2015,03,17,01,31,1.60
2015,03,17,01,32,1.60
2015,03,17,01,33,1.60
2015,03,17,01,34,1.60
2015,03,17,01,35,1.60
2015,03,17,01,36,1.60
2015,03,17,01,37,1.60
2015,03,17,01,38,1.60
2015,03,17,01,39,1.70
2015,03,17,01,40,1.70
2015,03,17,01,41,1.70
2015,03,17,01,42,1.70
2015,03,17,01,43,1.70
2015,03,17,01,44,1.70
2015,03,17,01,45,1.70
2015,03,17,01,46,1.70
2015,03,17,01,47,1.70
2015,03,17,01,48,1.70
2015,03,17,01,49,1.70
2015,03,17,01,50,1.70
2015,03,17,01,51,1.70
2015,03,17,01,52,1.70
2015,03,17,01,53,1.70
2015,03,17,01,54,1.60
2015,03,17,01,55,1.60
2015,03,17,01,56,1.60
2015,03,17,01,57,1.60
2015,03,17,01,58,1.70
2015,03,17,01,59,1.70
2015,03,17,02,00,1.70
2015,03,17,02,01,1.80
2015,03,17,02,02,1.80
2015,03,17,02,03,1.90
2015,03,17,02,04,1.90
2015,03,17,02,05,1.90
2015,03,17,02,06,2.00
2015,03,17,02,07,2.00
2015,03,17,02,08,2.10
2015,03,17,02,09,2.10
2015,03,17,02,10,2.10
2015,03,17,02,11,2.20
2015,03,17,02,12,2.20
2015,03,17,02,13,2.20
2015,03,17,02,14,2.30
2015,03,17,02,15,2.30
2015,03,17,02,16,2.30
2015,03,17,02,17,2.30
2015,03,17,02,18,2.30
2015,03,17,02,19,2.30
2015,03,17,02,20,2.30
2015,03,17,02,21,2.20
2015,03,17,02,22,2.20
2015,03,17,02,23,2.20
2015,03,17,02,24,2.20
2015,03,17,02,25,2.10
2015,03,17,02,26,2.10
2015,03,17,02,27,2.10
2015,03,17,02,28,2.00
2015,03,17,02,29,2.00
2015,03,17,02,30,1.90
2015,03,17,02,31,1.90
2015,03,17,02,32,1.90
2015,03,17,02,33,1.80
2015,03,17,02,34,1.80
2015,03,17,02,35,1.80
2015,03,17,02,36,1.80
2015,03,17,02,37,1.80
2015,03,17,02,38,1.80
2015,03,17,02,39,1.80
2015,03,17,02,40,1.80
2015,03,17,02,41,1.90
2015,03,17,02,42,1.90
2015,03,17,02,43,1.90
2015,03,17,02,44,2.00
2015,03,17,02,45,2.00
2015,03,17,02,46,2.10
2015,03,17,02,47,2.10
2015,03,17,02,48,2.10
2015,03,17,02,49,2.00
2015,03,17,02,50,2.00
2015,03,17,02,51,2.00
2015,03,17,02,52,2.00
2015,03,17,02,53,2.00
2015,03,17,02,54,2.00
2015,03,17,02,55,2.00
2015,03,17,02,56,2.00
2015,03,17,02,57,2.00
2015,03,17,02,58,2.00
2015,03,17,02,59,2.10
2015,03,17,03,00,2.10
2015,03,17,03,01,2.10
2015,03,17,03,02,2.20
2015,03,17,03,03,2.20
2015,03,17,04,02,1.50
2015,03,17,04,03,1.50
2015,03,17,04,04,1.50
2015,03,17,04,05,1.50
2015,03,17,04,06,1.50
2015,03,17,04,07,1.50
2015,03,17,04,08,1.50
2015,03,17,04,09,1.50
2015,03,17,04,10,1.50
2015,03,17,04,11,1.50
2015,03,17,04,12,1.50
2015,03,17,04,13,1.50
2015,03,17,04,14,1.60
2015,03,17,04,15,1.60
2015,03,17,04,16,1.60
2015,03,17,04,17,1.60
2015,03,17,04,18,1.60
2015,03,17,04,19,1.50
2015,03,17,04,20,1.50
2015,03,17,04,21,1.50
2015,03,17,04,22,1.50
2015,03,17,04,23,1.60
2015,03,17,04,24,1.60
2015,03,17,04,25,1.60
2015,03,17,04,26,1.60
2015,03,17,04,27,1.60
2015,03,17,04,28,1.60
2015,03,17,04,29,1.60
2015,03,17,04,30,1.60
2015,03,17,04,31,1.60
2015,03,17,04,32,1.60
2015,03,17,04,33,1.60
2015,03,17,04,34,1.60
2015,03,17,04,35,1.50
2015,03,17,04,36,1.50
2015,03,17,04,37,1.60
2015,03,17,04,38,1.60
2015,03,17,04,39,1.60
2015,03,17,04,40,1.60
2015,03,17,04,41,1.60
2015,03,17,04,42,1.60
2015,03,17,04,43,1.60
2015,03,17,04,44,1.60
2015,03,17,04,45,1.60
2015,03,17,04,46,1.60
2015,03,17,04,47,1.60
2015,03,17,04,48,1.60
2015,03,17,04,49,1.50
2015,03,17,04,50,1.50
2015,03,17,04,51,1.50
2015,03,17,04,52,1.50
2015,03,17,04,53,1.50
2015,03,17,04,54,1.50
2015,03,17,04,55,1.50
2015,03,17,04,56,1.50
2015,03,17,04,57,1.50
2015,03,17,04,58,1.50
2015,03,17,04,59,1.50
2015,03,17,05,00,1.40
2015,03,17,05,01,1.40
2015,03,17,05,02,1.40
2015,03,17,05,03,1.40
2015,03,17,05,04,1.40
2015,03,17,05,05,1.40
2015,03,17,05,06,1.40
2015,03,17,05,07,1.40
2015,03,17,05,08,1.40
2015,03,17,05,09,1.40
2015,03,17,05,10,1.40
2015,03,17,05,11,1.40
2015,03,17,05,12,1.40
2015,03,17,05,13,1.40
2015,03,17,05,14,1.50
2015,03,17,05,15,1.50
2015,03,17,05,16,1.60
2015,03,17,05,17,1.70
2015,03,17,05,18,1.70
2015,03,17,05,19,1.80
2015,03,17,05,20,1.80
2015,03,17,05,21,1.90
2015,03,17,05,22,1.90
2015,03,17,05,23,1.80
2015,03,17,05,24,1.80
2015,03,17,05,25,1.80
2015,03,17,05,26,1.70
2015,03,17,05,27,1.70
2015,03,17,05,28,1.70
2015,03,17,05,29,1.60
2015,03,17,05,30,1.60
2015,03,17,05,31,1.60
2015,03,17,05,32,1.60
2015,03,17,05,33,1.60
2015,03,17,05,34,1.50
2015,03,17,05,35,1.50
2015,03,17,05,36,1.50
2015,03,17,05,37,1.50
2015,03,17,05,38,1.50
2015,03,17,05,39,1.50
2015,03,17,05,40,1.50
2015,03,17,05,41,1.50
2015,03,17,05,42,1.60
2015,03,17,05,43,1.60
2015,03,17,05,44,1.50
2015,03,17,05,45,1.50
2015,03,17,05,46,1.40
2015,03,17,05,47,1.40
2015,03,17,05,48,1.40
2015,03,17,05,49,1.40
2015,03,17,05,50,1.40
2015,03,17,05,51,1.40
2015,03,17,05,52,1.40
2015,03,17,05,53,1.40
2015,03,17,05,54,1.40
2015,03,17,05,55,1.40
2015,03,17,05,56,1.40
2015,03,17,05,57,1.40
2015,03,17,05,58,1.40
2015,03,17,05,59,1.40
2015,03,17,06,00,1.40
2015,03,17,06,01,1.40
2015,03,17,06,02,1.50
2015,03,17,06,03,1.50
2015,03,17,06,04,1.50
2015,03,17,06,05,1.50
2015,03,17,06,06,1.50
2015,03,17,06,07,1.50
2015,03,17,06,08,1.50
2015,03,17,06,09,1.50
2015,03,17,06,10,1.60
2015,03,17,06,11,1.60
2015,03,17,06,12,1.60
2015,03,17,06,13,1.60
2015,03,17,06,14,1.60
2015,03,17,06,15,1.60
2015,03,17,06,16,1.60
2015,03,17,06,17,1.60
2015,03,17,06,18,1.60
2015,03,17,06,19,1.60
2015,03,17,06,20,1.60
2015,03,17,06,21,1.60
2015,03,17,06,22,1.60
2015,03,17,06,23,1.60
2015,03,17,06,24,1.60
2015,03,17,06,25,1.50
2015,03,17,06,26,1.50
2015,03,17,06,27,1.50
2015,03,17,06,28,1.40
2015,03,17,06,29,1.40
2015,03,17,06,30,1.40
2015,03,17,06,31,1.40
2015,03,17,06,32,1.30
2015,03,17,06,33,1.30
2015,03,17,06,34,1.30
2015,03,17,06,35,1.30
2015,03,17,06,36,1.30
2015,03,17,06,37,1.30
2015,03,17,06,38,1.30
2015,03,17,06,39,1.40
2015,03,17,06,40,1.40
2015,03,17,06,41,1.40
2015,03,17,06,42,1.40
2015,03,17,06,43,1.40
2015,03,17,06,44,1.40
2015,03,17,06,45,1.40
2015,03,17,06,46,1.40
2015,03,17,06,47,1.40
2015,03,17,06,48,1.40
2015,03,17,06,49,1.40
2015,03,17,06,50,1.40
2015,03,17,06,51,1.30
2015,03,17,06,52,1.30
2015,03,17,06,53,1.30
2015,03,17,06,54,1.30
2015,03,17,06,55,1.30
2015,03,17,06,56,1.30
2015,03,17,06,57,1.20
2015,03,17,06,58,1.20
2015,03,17,06,59,1.20
2015,03,17,07,00,1.20
2015,03,17,07,01,1.20
2015,03,17,07,02,1.20
2015,03,17,07,03,1.20
2015,03,17,07,04,1.20
2015,03,17,07,05,1.20
2015,03,17,07,06,1.20
2015,03,17,07,07,1.20
2015,03,17,07,08,1.20
2015,03,17,07,09,1.30
2015,03,17,07,10,1.30
2015,03,17,07,11,1.30
2015,03,17,07,12,1.30
2015,03,17,07,13,1.40
2015,03,17,07,14,1.40
2015,03,17,07,15,1.40
2015,03,17,07,16,1.40
2015,03,17,07,17,1.40
2015,03,17,07,18,1.40
2015,03,17,07,19,1.50
2015,03,17,07,20,1.60
2015,03,17,07,21,1.60
2015,03,17,07,22,1.70
2015,03,17,07,23,1.70
2015,03,17,07,24,1.80
2015,03,17,07,25,1.80
2015,03,17,07,26,1.80
2015,03,17,07,27,1.80
2015,03,17,07,28,1.80
2015,03,17,07,29,1.80
2015,03,17,07,30,1.80
2015,03,17,07,31,1.80
2015,03,17,07,32,1.80
2015,03,17,07,33,1.80
2015,03,17,07,34,1.70
2015,03,17,07,35,1.70
2015,03,17,07,36,1.70
2015,03,17,07,37,1.70
2015,03,17,07,38,1.70
2015,03,17,07,39,1.70
2015,03,17,07,40,1.70
2015,03,17,07,41,1.70
2015,03,17,07,42,1.80
2015,03,17,07,43,1.80
2015,03,17,07,44,1.80
2015,03,17,07,45,1.80
2015,03,17,07,46,1.80
2015,03,17,07,47,1.80
2015,03,17,07,48,1.80
2015,03,17,07,49,1.80
2015,03,17,07,50,1.80
2015,03,17,07,51,1.80
2015,03,17,07,52,1.80
2015,03,17,07,53,1.80
2015,03,17,07,54,1.80
2015,03,17,07,55,1.80
2015,03,17,07,56,1.80
2015,03,17,07,57,1.80
2015,03,17,07,58,1.80
2015,03,17,07,59,1.70
2015,03,17,08,00,1.70
2015,03,17,08,01,1.70
2015,03,17,08,02,1.70
2015,03,17,08,03,1.80
2015,03,17,08,04,1.80
2015,03,17,08,05,1.80
2015,03,17,08,06,1.80
2015,03,17,08,07,1.80
2015,03,17,08,08,1.80
2015,03,17,08,09,1.80
2015,03,17,08,10,1.80
2015,03,17,08,11,1.80
2015,03,17,08,12,1.70
2015,03,17,08,13,1.70
2015,03,17,08,14,1.80
2015,03,17,08,15,1.80
2015,03,17,08,16,1.80
2015,03,17,08,17,1.80
2015,03,17,08,18,1.80
2015,03,17,08,19,1.80
2015,03,17,08,20,1.80
2015,03,17,08,21,1.80
2015,03,17,08,22,1.80
2015,03,17,08,23,1.80
2015,03,17,08,24,1.80
2015,03,17,08,25,1.90
2015,03,17,08,26,1.90
2015,03,17,08,27,1.90
2015,03,17,08,28,1.90
2015,03,17,08,29,1.90
2015,03,17,08,30,2.00
2015,03,17,08,31,2.00
2015,03,17,08,32,2.10
2015,03,17,08,33,2.10
2015,03,17,08,34,2.10
2015,03,17,08,35,2.20
2015,03,17,08,36,2.20
2015,03,17,08,37,2.20
2015,03,17,08,38,2.20
2015,03,17,08,39,2.20
2015,03,17,08,40,2.30
2015,03,17,08,41,2.30
2015,03,17,08,42,2.30
2015,03,17,08,43,2.30
2015,03,17,08,44,2.30
2015,03,17,08,45,2.30
2015,03,17,08,46,2.40
2015,03,17,08,47,2.40
2015,03,17,08,48,2.40
2015,03,17,08,49,2.50
2015,03,17,08,50,2.50
2015,03,17,08,51,2.60
2015,03,17,08,52,2.60
2015,03,17,08,53,2.70
2015,03,17,08,54,2.70
2015,03,17,08,55,2.70
2015,03,17,08,56,2.80
2015,03,17,08,57,2.80
2015,03,17,08,58,2.80
2015,03,17,08,59,2.90
2015,03,17,09,00,3.00
2015,03,17,09,01,3.00
2015,03,17,09,02,3.10
2015,03,17,09,03,3.20
2015,03,17,09,04,3.20
2015,03,17,09,05,3.30
2015,03,17,09,06,3.30
2015,03,17,09,07,3.40
2015,03,17,09,08,3.50
2015,03,17,09,09,3.60
2015,03,17,09,10,3.60
2015,03,17,09,11,3.70
2015,03,17,09,12,3.70
2015,03,17,09,13,3.80
2015,03,17,09,14,3.80
2015,03,17,09,15,3.90
2015,03,17,09,16,3.90
2015,03,17,09,17,4.00
2015,03,17,09,18,4.00
2015,03,17,09,19,4.10
2015,03,17,09,20,4.10
2015,03,17,09,21,4.20
2015,03,17,09,22,4.20
2015,03,17,09,23,4.30
2015,03,17,09,24,4.30
2015,03,17,09,25,4.30
2015,03,17,09,26,4.30
2015,03,17,09,27,4.40
2015,03,17,09,28,4.40
2015,03,17,09,29,4.40
2015,03,17,09,30,4.40
2015,03,17,09,31,4.40
2015,03,17,09,32,4.50
2015,03,17,09,33,4.50
2015,03,17,09,34,4.50
2015,03,17,09,35,4.60
2015,03,17,09,36,4.60
2015,03,17,09,37,4.60
2015,03,17,09,38,4.60
2015,03,17,09,39,4.70
2015,03,17,09,40,4.70
2015,03,17,09,41,4.70
2015,03,17,09,42,4.80
2015,03,17,09,43,4.80
2015,03,17,09,44,4.90
2015,03,17,09,45,4.90
2015,03,17,09,46,5.00
2015,03,17,09,47,5.00
2015,03,17,09,48,5.10
2015,03,17,09,49,5.10
2015,03,17,09,50,5.20
2015,03,17,09,51,5.20
2015,03,17,09,52,5.30
2015,03,17,09,53,5.30
2015,03,17,09,54,5.40
2015,03,17,09,55,5.40
2015,03,17,09,56,5.50
2015,03,17,09,57,5.50
2015,03,17,09,58,5.60
2015,03,17,09,59,5.60
2015,03,17,10,00,5.70
2015,03,17,10,01,5.70
2015,03,17,10,02,5.70
2015,03,17,10,03,5.80
2015,03,17,10,04,5.80
2015,03,17,10,05,5.90
2015,03,17,10,06,5.90
2015,03,17,10,07,5.90
2015,03,17,10,08,5.90
2015,03,17,10,09,5.90
2015,03,17,10,10,6.00
2015,03,17,10,11,5.90
2015,03,17,10,12,6.00
2015,03,17,10,13,6.00
2015,03,17,10,14,6.00
2015,03,17,10,15,6.00
2015,03,17,10,16,6.10
2015,03,17,10,17,6.10
2015,03,17,10,18,6.10
2015,03,17,10,19,6.20
2015,03,17,10,20,6.20
2015,03,17,10,21,6.20
2015,03,17,10,22,6.30
2015,03,17,10,23,6.30
2015,03,17,10,24,6.30
2015,03,17,10,25,6.40
2015,03,17,10,26,6.40
2015,03,17,10,27,6.50
2015,03,17,10,28,6.50
2015,03,17,10,29,6.50
2015,03,17,10,30,6.60
2015,03,17,10,31,6.60
2015,03,17,10,32,6.60
2015,03,17,10,33,6.60
2015,03,17,10,34,6.60
2015,03,17,10,35,6.70
2015,03,17,10,36,6.70
2015,03,17,10,37,6.70
2015,03,17,10,38,6.70
2015,03,17,10,39,6.80
2015,03,17,10,40,6.80
2015,03,17,10,41,6.80
2015,03,17,10,42,6.90
2015,03,17,10,43,6.90
2015,03,17,10,44,7.00
2015,03,17,10,45,7.00
2015,03,17,10,46,7.10
2015,03,17,10,47,7.20
2015,03,17,10,48,7.30
2015,03,17,10,49,7.30
2015,03,17,10,50,7.40
2015,03,17,10,51,7.40
2015,03,17,10,52,7.50
2015,03,17,10,53,7.50
2015,03,17,10,54,7.60
2015,03,17,10,55,7.60
2015,03,17,10,56,7.60
2015,03,17,10,57,7.60
2015,03,17,10,58,7.60
2015,03,17,10,59,7.60
2015,03,17,11,00,7.70
2015,03,17,11,01,7.70
2015,03,17,11,02,7.70
2015,03,17,11,03,7.70
2015,03,17,11,04,7.80
2015,03,17,11,05,7.80
2015,03,17,11,06,7.80
2015,03,17,11,07,7.80
2015,03,17,11,08,7.80
2015,03,17,11,09,7.80
2015,03,17,11,10,7.80
2015,03,17,11,11,7.80
2015,03,17,11,12,7.80
2015,03,17,11,13,7.80
2015,03,17,11,14,7.90
2015,03,17,11,15,7.90
2015,03,17,11,16,7.90
2015,03,17,11,17,7.90
2015,03,17,11,18,7.90
2015,03,17,11,19,7.90
2015,03,17,11,20,7.90
2015,03,17,11,21,8.00
2015,03,17,11,22,8.00
2015,03,17,11,23,8.00
2015,03,17,11,24,8.10
2015,03,17,11,25,8.10
2015,03,17,11,26,8.10
2015,03,17,11,27,8.10
2015,03,17,11,28,8.10
2015,03,17,11,29,8.10
2015,03,17,11,30,8.10
2015,03,17,11,31,8.20
2015,03,17,11,32,8.20
2015,03,17,11,33,8.20
2015,03,17,11,34,8.30
2015,03,17,11,35,8.30
2015,03,17,11,36,8.30
2015,03,17,11,37,8.30
2015,03,17,11,38,8.30
2015,03,17,11,39,8.40
2015,03,17,11,40,8.40
2015,03,17,11,41,8.50
2015,03,17,11,42,8.50
2015,03,17,11,43,8.60
2015,03,17,11,44,8.70
2015,03,17,11,45,8.70
2015,03,17,11,46,8.80
2015,03,17,11,47,8.80
2015,03,17,11,48,8.80
2015,03,17,11,49,8.90
2015,03,17,11,50,8.90
2015,03,17,11,51,9.00
2015,03,17,11,52,9.00
2015,03,17,11,53,9.10
2015,03,17,11,54,9.10
2015,03,17,11,55,9.20
2015,03,17,11,56,9.20
2015,03,17,11,57,9.20
2015,03,17,11,58,9.30
2015,03,17,11,59,9.30
2015,03,17,12,00,9.40
2015,03,17,12,01,9.50
2015,03,17,12,02,9.60
2015,03,17,12,03,9.60
2015,03,17,12,04,9.70
2015,03,17,12,05,9.80
2015,03,17,12,06,9.90
2015,03,17,12,07,10.00
2015,03,17,12,08,10.10
2015,03,17,12,09,10.20
2015,03,17,12,10,10.30
2015,03,17,12,11,10.30
2015,03,17,12,12,10.30
2015,03,17,12,13,10.30
2015,03,17,12,14,10.30
2015,03,17,12,15,10.30
2015,03,17,12,16,10.30
2015,03,17,12,17,10.30
2015,03,17,12,18,10.20
2015,03,17,12,19,10.20
2015,03,17,12,20,10.20
2015,03,17,12,21,10.20
2015,03,17,12,22,10.10
2015,03,17,12,23,10.00
2015,03,17,12,24,10.00
2015,03,17,12,25,9.90
2015,03,17,12,26,9.80
2015,03,17,12,27,9.80
2015,03,17,12,28,9.70
2015,03,17,12,29,9.60
2015,03,17,12,30,9.50
2015,03,17,12,31,9.40
2015,03,17,12,32,9.40
2015,03,17,12,33,9.30
2015,03,17,12,34,9.30
2015,03,17,12,35,9.20
2015,03,17,12,36,9.20
2015,03,17,12,37,9.20
2015,03,17,12,38,9.20
2015,03,17,12,39,9.20
2015,03,17,12,40,9.20
2015,03,17,12,41,9.10
2015,03,17,12,42,9.10
2015,03,17,12,43,9.10
2015,03,17,12,44,9.20
2015,03,17,12,45,9.20
2015,03,17,12,46,9.20
2015,03,17,12,47,9.20
2015,03,17,12,48,9.20
2015,03,17,12,49,9.30
2015,03,17,12,50,9.30
2015,03,17,12,51,9.30
2015,03,17,12,52,9.30
2015,03,17,12,53,9.30
2015,03,17,12,54,9.30
2015,03,17,12,55,9.30
2015,03,17,12,56,9.20
2015,03,17,12,57,9.20
2015,03,17,12,58,9.20
2015,03,17,12,59,9.20
2015,03,17,13,00,9.20
2015,03,17,13,01,9.20
2015,03,17,13,02,9.20
2015,03,17,13,03,9.20
2015,03,17,13,04,9.20
2015,03,17,13,05,9.20
2015,03,17,13,06,9.20
2015,03,17,13,07,9.20
2015,03,17,13,08,9.20
2015,03,17,13,09,9.20
2015,03,17,13,10,9.10
2015,03,17,13,11,9.10
2015,03,17,13,12,9.10
2015,03,17,13,13,9.10
2015,03,17,13,14,9.10
2015,03,17,13,15,9.10
2015,03,17,13,16,9.10
2015,03,17,13,17,9.10
2015,03,17,13,18,9.10
2015,03,17,13,19,9.10
2015,03,17,13,20,9.10
2015,03,17,13,21,9.20
2015,03,17,13,22,9.20
2015,03,17,13,23,9.20
2015,03,17,13,24,9.30
2015,03,17,13,25,9.30
2015,03,17,13,26,9.40
2015,03,17,13,27,9.40
2015,03,17,13,28,9.40
2015,03,17,13,29,9.50
2015,03,17,13,30,9.60
2015,03,17,13,31,9.60
2015,03,17,13,32,9.70
2015,03,17,13,33,9.70
2015,03,17,13,34,9.70
2015,03,17,13,35,9.70
2015,03,17,13,36,9.60
2015,03,17,13,37,9.60
2015,03,17,13,38,9.50
2015,03,17,13,39,9.50
2015,03,17,13,40,9.50
2015,03,17,13,41,9.40
2015,03,17,13,42,9.40
2015,03,17,13,43,9.40
2015,03,17,13,44,9.40
2015,03,17,13,45,9.40
2015,03,17,13,46,9.40
2015,03,17,13,47,9.40
2015,03,17,13,48,9.40
2015,03,17,13,49,9.50
2015,03,17,13,50,9.50
2015,03,17,13,51,9.50
2015,03,17,13,52,9.60
2015,03,17,13,53,9.60
2015,03,17,13,54,9.60
2015,03,17,13,55,9.60
2015,03,17,13,56,9.60
2015,03,17,13,57,9.60
2015,03,17,13,58,9.60
2015,03,17,13,59,9.60
2015,03,17,14,00,9.50
2015,03,17,14,01,9.50
2015,03,17,14,02,9.50
2015,03,17,14,03,9.50
2015,03,17,14,04,9.50
2015,03,17,14,05,9.40
2015,03,17,14,06,9.40
2015,03,17,14,07,9.40
2015,03,17,14,08,9.40
2015,03,17,14,09,9.40
2015,03,17,14,10,9.40
2015,03,17,14,11,9.40
2015,03,17,14,12,9.40
2015,03,17,14,13,9.40
2015,03,17,14,14,9.40
2015,03,17,14,15,9.40
2015,03,17,14,16,9.40
2015,03,17,14,17,9.40
2015,03,17,14,18,9.40
2015,03,17,14,19,9.30
2015,03,17,14,20,9.30
2015,03,17,14,21,9.30
2015,03,17,14,22,9.30
2015,03,17,14,23,9.30
2015,03,17,14,24,9.30
2015,03,17,14,25,9.30
2015,03,17,14,26,9.30
2015,03,17,14,27,9.30
2015,03,17,14,28,9.30
2015,03,17,14,29,9.20
2015,03,17,14,30,9.20
2015,03,17,14,31,9.30
2015,03,17,14,32,9.30
2015,03,17,14,33,9.30
2015,03,17,14,34,9.30
2015,03,17,14,35,9.40
2015,03,17,14,36,9.50
2015,03,17,14,37,9.60
2015,03,17,14,38,9.60
2015,03,17,14,39,9.70
2015,03,17,14,40,9.70
2015,03,17,14,41,9.70
2015,03,17,14,42,9.70
2015,03,17,14,43,9.70
2015,03,17,14,44,9.80
2015,03,17,14,45,9.90
2015,03,17,14,46,9.90
2015,03,17,14,47,9.90
2015,03,17,14,48,10.00
2015,03,17,14,49,10.10
2015,03,17,14,50,10.10
2015,03,17,14,51,10.20
2015,03,17,14,52,10.30
2015,03,17,14,53,10.40
2015,03,17,14,54,10.50
2015,03,17,14,55,10.60
2015,03,17,14,56,10.70
2015,03,17,14,57,10.70
2015,03,17,14,58,10.60
2015,03,17,14,59,10.50
2015,03,17,15,00,10.40
2015,03,17,15,01,10.30
2015,03,17,15,02,10.30
2015,03,17,15,03,10.30
2015,03,17,15,04,10.20
2015,03,17,15,05,10.20
2015,03,17,15,06,10.20
2015,03,17,15,07,10.10
2015,03,17,15,08,10.10
2015,03,17,15,09,10.10
2015,03,17,15,10,10.10
2015,03,17,15,11,10.10
2015,03,17,15,12,10.10
2015,03,17,15,13,10.10
2015,03,17,15,14,10.10
2015,03,17,15,15,10.10
2015,03,17,15,16,10.00
2015,03,17,15,17,10.00
2015,03,17,15,18,10.00
2015,03,17,15,19,9.90
2015,03,17,15,20,9.90
2015,03,17,15,21,10.00
2015,03,17,15,22,10.00
2015,03,17,15,23,10.10
2015,03,17,15,24,10.10
2015,03,17,15,25,10.10
2015,03,17,15,26,10.10
2015,03,17,15,27,10.10
2015,03,17,15,28,10.10
2015,03,17,15,29,10.10
2015,03,17,15,30,10.10
2015,03,17,15,31,10.10
2015,03,17,15,32,10.20
2015,03,17,15,33,10.20
2015,03,17,15,34,10.20
2015,03,17,15,35,10.20
2015,03,17,15,36,10.20
2015,03,17,15,37,10.20
2015,03,17,15,38,10.20
2015,03,17,15,39,10.20
2015,03,17,15,40,10.20
2015,03,17,15,41,10.10
2015,03,17,15,42,10.10
2015,03,17,15,43,10.10
2015,03,17,15,44,10.10
2015,03,17,15,45,10.20
2015,03,17,15,46,10.20
2015,03,17,15,47,10.20
2015,03,17,15,48,10.20
2015,03,17,15,49,10.30
2015,03,17,15,50,10.30
2015,03,17,15,51,10.40
2015,03,17,15,52,10.40
2015,03,17,15,53,10.40
2015,03,17,15,54,10.40
2015,03,17,15,55,10.40
2015,03,17,15,56,10.40
2015,03,17,15,57,10.40
2015,03,17,15,58,10.40
2015,03,17,15,59,10.40
2015,03,17,16,00,10.50
2015,03,17,16,01,10.40
2015,03,17,16,02,10.40
2015,03,17,16,03,10.40
2015,03,17,16,04,10.40
2015,03,17,16,05,10.40
2015,03,17,16,06,10.40
2015,03,17,16,07,10.40
2015,03,17,16,08,10.40
2015,03,17,16,09,10.40
2015,03,17,16,10,10.40
2015,03,17,16,11,10.40
2015,03,17,16,12,10.40
2015,03,17,16,13,10.40
2015,03,17,16,14,10.40
2015,03,17,16,15,10.40
2015,03,17,16,16,10.40
2015,03,17,16,17,10.40
2015,03,17,16,18,10.40
2015,03,17,16,19,10.40
2015,03,17,16,20,10.40
2015,03,17,16,21,10.40
2015,03,17,16,22,10.50
2015,03,17,16,23,10.60
2015,03,17,16,24,10.70
2015,03,17,16,25,10.70
2015,03,17,16,26,10.70
2015,03,17,16,27,10.80
2015,03,17,16,28,10.80
2015,03,17,16,29,10.80
2015,03,17,16,30,10.80
2015,03,17,16,31,10.80
2015,03,17,16,32,10.90
2015,03,17,16,33,10.90
2015,03,17,16,34,10.90
2015,03,17,16,35,10.90
2015,03,17,16,36,11.00
2015,03,17,16,37,11.10
2015,03,17,16,38,11.10
2015,03,17,16,39,11.20
2015,03,17,16,40,11.20
2015,03,17,16,41,11.20
2015,03,17,16,42,11.20
2015,03,17,16,43,11.20
2015,03,17,16,44,11.30
2015,03,17,16,45,11.30
2015,03,17,16,46,11.30
2015,03,17,16,47,11.30
2015,03,17,16,48,11.30
2015,03,17,16,49,11.30
2015,03,17,16,50,11.30
2015,03,17,16,51,11.30
2015,03,17,16,52,11.30
2015,03,17,16,53,11.20
2015,03,17,16,54,11.20
2015,03,17,16,55,11.20
2015,03,17,16,56,11.20
2015,03,17,16,57,11.20
2015,03,17,16,58,11.20
2015,03,17,16,59,11.20
2015,03,17,17,00,11.20
2015,03,17,17,01,11.20
2015,03,17,17,02,11.20
2015,03,17,17,03,11.20
2015,03,17,17,04,11.20
2015,03,17,17,05,11.20
2015,03,17,17,06,11.20
2015,03,17,17,07,11.20
2015,03,17,17,08,11.20
2015,03,17,17,09,11.20
2015,03,17,17,10,11.20
2015,03,17,17,11,11.20
2015,03,17,17,12,11.20
2015,03,17,17,13,11.20
2015,03,17,17,14,11.20
2015,03,17,17,15,11.20
2015,03,17,17,16,11.20
2015,03,17,17,17,11.20
2015,03,17,17,18,11.30
2015,03,17,17,19,11.30
2015,03,17,17,20,11.30
2015,03,17,17,21,11.40
2015,03,17,17,22,11.40
2015,03,17,17,23,11.40
2015,03,17,17,24,11.40
2015,03,17,17,25,11.40
2015,03,17,17,26,11.40
2015,03,17,17,27,11.50
2015,03,17,17,28,11.50
2015,03,17,17,29,11.60
2015,03,17,17,30,11.60
2015,03,17,17,31,11.60
2015,03,17,17,32,11.60
2015,03,17,17,33,11.60
2015,03,17,17,34,11.60
2015,03,17,17,35,11.60
2015,03,17,17,36,11.60
2015,03,17,17,37,11.60
2015,03,17,17,38,11.60
2015,03,17,17,39,11.60
2015,03,17,17,40,11.60
2015,03,17,17,41,11.50
2015,03,17,17,42,11.50
2015,03,17,17,43,11.60
2015,03,17,17,44,11.60
2015,03,17,17,45,11.60
2015,03,17,17,46,11.60
2015,03,17,17,47,11.60
2015,03,17,17,48,11.60
2015,03,17,17,49,11.50
2015,03,17,17,50,11.50
2015,03,17,17,51,11.40
2015,03,17,17,52,11.30
2015,03,17,17,53,11.30
2015,03,17,17,54,11.20
2015,03,17,17,55,11.10
2015,03,17,17,56,11.00
2015,03,17,17,57,11.00
2015,03,17,17,58,10.90
2015,03,17,17,59,10.90
2015,03,17,18,00,10.90
2015,03,17,18,01,10.80
2015,03,17,18,02,10.80
2015,03,17,18,03,10.70
2015,03,17,18,04,10.70
2015,03,17,18,05,10.70
2015,03,17,18,06,10.60
2015,03,17,18,07,10.60
2015,03,17,18,08,10.60
2015,03,17,18,09,10.60
2015,03,17,18,10,10.60
2015,03,17,18,11,10.60
2015,03,17,18,12,10.60
2015,03,17,18,13,10.50
2015,03,17,18,14,10.50
2015,03,17,18,15,10.50
2015,03,17,18,16,10.50
2015,03,17,18,17,10.50
2015,03,17,18,18,10.50
2015,03,17,18,19,10.50
2015,03,17,18,20,10.50
2015,03,17,18,21,10.50
2015,03,17,18,22,10.50
2015,03,17,18,23,10.50
2015,03,17,18,24,10.40
2015,03,17,18,25,10.40
2015,03,17,18,26,10.40
2015,03,17,18,27,10.40
2015,03,17,18,28,10.40
2015,03,17,18,29,10.40
2015,03,17,18,30,10.40
2015,03,17,18,31,10.30
2015,03,17,18,32,10.30
2015,03,17,18,33,10.30
2015,03,17,18,34,10.30
2015,03,17,18,35,10.30
2015,03,17,18,36,10.30
2015,03,17,18,37,10.30
2015,03,17,18,38,10.30
2015,03,17,18,39,10.30
2015,03,17,18,40,10.20
2015,03,17,18,41,10.20
2015,03,17,18,42,10.20
2015,03,17,18,43,10.20
2015,03,17,18,44,10.20
2015,03,17,18,45,10.10
2015,03,17,18,46,10.10
2015,03,17,18,47,10.10
2015,03,17,18,48,10.10
2015,03,17,18,49,10.10
2015,03,17,18,50,10.00
2015,03,17,18,51,10.00
2015,03,17,18,52,9.90